Tracking 25964 objects as of 11-Aug-2022
HD Live streaming from Space Station
objects crossing your sky now

STARLINK-2334

Track STARLINK-2334 now!
10-day predictions
STARLINK-2334 is classified as:


NORAD ID: 47792
Int'l Code: 2021-018F
Perigee: 553.5 km
Apogee: 555.4 km
Inclination: 53.1 °
Period: 95.6 minutes
Semi major axis: 6925 km
RCS: Unknown
Launch date: March 11, 2021
Source: United States (US)
Launch site: AIR FORCE EASTERN TEST RANGE (AFETR)
aabbcc
Your satellite tracking list
Your tracking list is empty




NASA's NSSDC Master Catalog

Two Line Element Set (TLE):
1 47792U 21018F   22222.66857577 -.00005245  00000-0 -33376-3 0  9995
2 47792  53.0560 339.0730 0001420  80.4140 279.7009 15.06372072 79888
Source of the keplerian elements: AFSPC